STARLINK-32276 (60944 NORAD) Tracking and Keplerian Element Data

This shows tracking and keplerian element data for the satellite.

Feedback or suggestion? Click here.




ElementValue
Catalog60944
NameSTARLINK-32276
Epoch Orbit778
Epoch Day286.43868825
Epoch Year2024
RAAN355.5258
Inclination53.1621
Eccentricity0.0001528
Argument of Perigee128.7851
Mean Anonmoly231.3291
Mean Motion15.39650025
Decay Rate1.752E-05
L11 60944U 24155W 24286.43868825 .00001752 00000+0 53723-4 0 9994
L22 60944 53.1621 355.5258 0001528 128.7851 231.3291 15.39650025 7783



Live tracking and technical data element details for STARLINK-32276 (NORAD 60944). STARLINK-32276 can be tracked NOW for your location showing map with azimuth and elevation plus other details from your city location.







IsCatalogInMostPopularTable: catalog: 60944, numindb: 10
Update: records affected: 1



GetName: 60944 STARLINK-32276

Hit Count: updated at: Wed, 04 Dec 2024 19:51:01 GMT